Location: Ffm
(50.0000°N, 8.5000°E)
Time: 10:39:36
(UTC+01:00)

Envisat - Pass Details

Date: 05 November 2020
Orbit: 764 x 766 km, 98.1° (Epoch: 03 December)

Event Time Altitude Azimuth Distance (km) Brightness Sun altitude
Rises 18:42:36 0° 207° (SSW) 3,221 6.7 -17.4°
Reaches altitude 10° 18:45:31 10° 224° (SW) 2,300 6.1 -17.9°
Maximum altitude 18:49:10 20° 271° (W) 1,732 5.8 -18.5°
Drops below altitude 10° 18:52:50 10° 317° (NW) 2,312 6.0 -19.1°
Sets 18:55:47 0° 334° (NNW) 3,244 6.6 -19.5°
